Precipitable_Water
2.34 2.30 2.38 2.44 2.44 2.43 2.44 2.38 2.38 2.37 2.29 2.25 2.19 2.15 2.13 2.13 2.12 2.11 2.09 2.08 2.05 1.96 1.86 1.81 1.78 1.73 1.67 1.60 1.58 1.60 1.64 1.64 1.64 1.63 1.60 1.58 1.55 1.54 1.53 1.55 1.52 1.53 1.61 1.64 1.65 1.67 1.70 1.71 1.69 1.64 1.66 1.72 1.78 1.82 1.82 1.85 1.85 1.84 1.82 1.80 1.71 1.67 1.66 1.65 1.61 1.60 1.47 1.46 1.48 1.42 1.29 1.28 1.28 1.31 1.33 1.31 1.37 1.42 1.53 1.62 1.68 1.71 1.67 1.56 1.51
2.20 2.34 2.44 2.48 2.47 2.37 2.43 2.41 2.39 2.35 2.28 2.22 2.20 2.17 2.13 2.09 2.07 2.06 2.08 2.07 2.02 1.92 1.81 1.79 1.75 1.66 1.59 1.55 1.56 1.59 1.63 1.64 1.63 1.57 1.53 1.51 1.49 1.48 1.51 1.53 1.55 1.58 1.60 1.62 1.63 1.70 1.72 1.77 1.76 1.73 1.72 1.73 1.74 1.79 1.81 1.84 1.85 1.88 1.89 1.85 1.83 1.75 1.68 1.65 1.65 1.62 1.47 1.42 1.54 1.57 1.40 1.33 1.30 1.30 1.30 1.32 1.33 1.40 1.54 1.68 1.82 1.80 1.63 1.54 1.53
2.27 2.30 2.39 2.45 2.40 2.39 2.38 2.36 2.31 2.29 2.24 2.20 2.19 2.14 2.07 2.04 2.03 2.01 2.01 1.99 1.95 1.87 1.75 1.71 1.67 1.60 1.57 1.57 1.58 1.59 1.63 1.64 1.57 1.51 1.50 1.49 1.48 1.48 1.50 1.56 1.59 1.59 1.61 1.62 1.63 1.68 1.73 1.75 1.77 1.77 1.76 1.77 1.76 1.81 1.85 1.88 1.86 1.89 1.92 1.89 1.88 1.80 1.74 1.61 1.63 1.62 1.46 1.39 1.57 1.61 1.54 1.49 1.40 1.34 1.33 1.41 1.44 1.49 1.61 1.71 1.84 1.79 1.73 1.65 1.61
2.23 2.26 2.32 2.39 2.41 2.33 2.35 2.30 2.24 2.23 2.17 2.12 2.10 2.06 1.99 1.98 1.96 1.94 1.94 1.94 1.90 1.81 1.70 1.63 1.59 1.56 1.56 1.59 1.58 1.60 1.62 1.58 1.53 1.49 1.48 1.48 1.49 1.50 1.50 1.55 1.61 1.62 1.65 1.61 1.64 1.67 1.67 1.70 1.73 1.75 1.78 1.84 1.81 1.81 1.80 1.82 1.84 1.90 1.91 1.91 1.89 1.88 1.80 1.66 1.60 1.59 1.44 1.42 1.55 1.64 1.62 1.62 1.51 1.41 1.41 1.45 1.48 1.59 1.68 1.75 1.78 1.76 1.74 1.76 1.73
2.20 2.27 2.34 2.37 2.34 2.32 2.30 2.22 2.16 2.15 2.15 2.09 2.06 2.00 1.97 1.95 1.93 1.91 1.91 1.87 1.81 1.73 1.65 1.57 1.52 1.51 1.54 1.57 1.58 1.59 1.58 1.56 1.54 1.49 1.47 1.46 1.47 1.45 1.44 1.51 1.57 1.64 1.67 1.67 1.63 1.65 1.69 1.74 1.78 1.83 1.81 1.82 1.81 1.80 1.82 1.83 1.85 1.89 1.91 1.90 1.87 1.87 1.86 1.78 1.72 1.67 1.52 1.44 1.56 1.62 1.62 1.69 1.57 1.39 1.43 1.51 1.52 1.52 1.61 1.64 1.70 1.75 1.79 1.82 1.82
2.20 2.20 2.26 2.33 2.31 2.29 2.22 2.18 2.14 2.11 2.08 2.04 1.99 1.95 1.94 1.93 1.93 1.91 1.90 1.85 1.75 1.64 1.61 1.59 1.54 1.51 1.49 1.50 1.54 1.58 1.59 1.56 1.53 1.48 1.44 1.45 1.45 1.45 1.46 1.53 1.62 1.68 1.68 1.66 1.65 1.65 1.65 1.70 1.78 1.83 1.84 1.81 1.81 1.78 1.80 1.85 1.86 1.85 1.88 1.91 1.89 1.91 1.86 1.81 1.75 1.76 1.65 1.58 1.68 1.70 1.72 1.69 1.60 1.46 1.41 1.45 1.58 1.56 1.60 1.62 1.67 1.75 1.82 1.84 1.88
2.17 2.21 2.24 2.23 2.24 2.23 2.19 2.14 2.07 2.10 2.02 1.98 1.91 1.87 1.87 1.88 1.89 1.89 1.88 1.87 1.77 1.66 1.62 1.63 1.64 1.59 1.51 1.47 1.51 1.57 1.60 1.59 1.56 1.50 1.47 1.48 1.49 1.48 1.54 1.57 1.60 1.60 1.59 1.58 1.62 1.63 1.60 1.68 1.76 1.80 1.85 1.83 1.84 1.77 1.74 1.81 1.85 1.82 1.84 1.87 1.83 1.90 1.86 1.82 1.77 1.80 1.74 1.74 1.60 1.66 1.70 1.66 1.63 1.54 1.43 1.43 1.52 1.59 1.58 1.62 1.66 1.73 1.80 1.81 1.82
2.26 2.31 2.27 2.22 2.19 2.20 2.15 2.12 2.08 2.13 2.06 1.96 1.88 1.83 1.82 1.81 1.83 1.85 1.85 1.83 1.79 1.70 1.66 1.62 1.61 1.60 1.60 1.56 1.55 1.57 1.63 1.63 1.60 1.53 1.50 1.52 1.47 1.51 1.54 1.54 1.56 1.56 1.60 1.65 1.65 1.66 1.64 1.68 1.73 1.79 1.83 1.86 1.82 1.79 1.79 1.83 1.83 1.84 1.86 1.88 1.84 1.84 1.83 1.82 1.81 1.76 1.80 1.69 1.52 1.50 1.65 1.73 1.74 1.66 1.44 1.48 1.47 1.51 1.55 1.58 1.66 1.73 1.78 1.83 1.81
2.12 2.19 2.25 2.14 2.12 2.09 2.05 2.02 2.02 2.00 1.95 1.90 1.87 1.85 1.83 1.83 1.80 1.80 1.79 1.77 1.74 1.72 1.69 1.65 1.61 1.60 1.61 1.62 1.62 1.63 1.63 1.62 1.57 1.52 1.50 1.46 1.47 1.48 1.54 1.55 1.58 1.62 1.67 1.65 1.65 1.65 1.66 1.67 1.66 1.77 1.84 1.87 1.84 1.87 1.86 1.84 1.83 1.81 1.82 1.88 1.92 1.90 1.85 1.83 1.85 1.82 1.85 1.65 1.66 1.59 1.60 1.73 1.66 1.68 1.50 1.54 1.53 1.54 1.55 1.56 1.61 1.68 1.74 1.77 1.76
2.10 2.12 2.10 2.05 2.06 2.04 2.03 1.98 1.95 1.93 1.91 1.86 1.84 1.84 1.84 1.81 1.79 1.75 1.72 1.71 1.71 1.72 1.72 1.71 1.67 1.64 1.63 1.61 1.61 1.61 1.63 1.62 1.54 1.51 1.43 1.47 1.48 1.54 1.58 1.59 1.62 1.68 1.69 1.65 1.64 1.66 1.68 1.71 1.66 1.68 1.79 1.86 1.85 1.88 1.89 1.88 1.80 1.82 1.81 1.82 1.86 1.92 1.88 1.85 1.80 1.79 1.85 1.69 1.62 1.46 1.55 1.63 1.72 1.57 1.48 1.56 1.63 1.64 1.75 1.74 1.75 1.68 1.72 1.77 1.73
2.01 2.06 2.00 2.00 1.98 1.95 1.95 1.95 1.94 1.91 1.89 1.86 1.84 1.83 1.82 1.79 1.75 1.73 1.72 1.70 1.71 1.71 1.71 1.71 1.70 1.68 1.67 1.64 1.62 1.63 1.62 1.60 1.55 1.49 1.46 1.46 1.54 1.59 1.64 1.68 1.66 1.69 1.66 1.64 1.63 1.66 1.72 1.70 1.75 1.76 1.74 1.84 1.87 1.86 1.90 1.87 1.85 1.83 1.80 1.81 1.82 1.86 1.86 1.85 1.87 1.84 1.80 1.79 1.64 1.63 1.56 1.51 1.67 1.51 1.42 1.53 1.60 1.62 1.65 1.61 1.59 1.63 1.64 1.62 1.62
1.95 2.00 2.00 1.97 1.89 1.90 1.90 1.94 1.92 1.91 1.89 1.90 1.84 1.80 1.76 1.72 1.71 1.74 1.74 1.73 1.75 1.74 1.76 1.76 1.74 1.73 1.72 1.69 1.68 1.65 1.58 1.54 1.54 1.50 1.49 1.50 1.60 1.64 1.73 1.69 1.70 1.66 1.72 1.74 1.72 1.68 1.68 1.71 1.76 1.79 1.81 1.84 1.89 1.86 1.86 1.85 1.87 1.86 1.81 1.84 1.84 1.84 1.88 1.85 1.88 1.87 1.90 1.82 1.80 1.74 1.76 1.68 1.70 1.40 1.45 1.51 1.55 1.58 1.58 1.56 1.56 1.54 1.59 1.61 1.59
1.93 2.00 2.02 1.91 1.90 1.86 1.86 1.84 1.87 1.86 1.85 1.84 1.80 1.75 1.73 1.70 1.66 1.71 1.76 1.78 1.80 1.81 1.78 1.76 1.74 1.73 1.72 1.70 1.67 1.64 1.60 1.55 1.59 1.53 1.52 1.53 1.65 1.69 1.68 1.72 1.69 1.71 1.76 1.88 1.77 1.75 1.77 1.75 1.73 1.75 1.79 1.84 1.87 1.84 1.87 1.81 1.85 1.89 1.87 1.88 1.84 1.79 1.87 1.92 1.93 1.89 1.79 1.73 1.83 1.71 1.75 1.76 1.60 1.32 1.38 1.45 1.49 1.52 1.53 1.54 1.54 1.54 1.55 1.57 1.57
1.98 1.92 1.87 1.85 1.87 1.82 1.82 1.80 1.82 1.83 1.81 1.80 1.78 1.74 1.74 1.71 1.70 1.68 1.69 1.73 1.78 1.75 1.72 1.72 1.72 1.73 1.73 1.67 1.62 1.59 1.58 1.57 1.60 1.58 1.55 1.62 1.68 1.70 1.71 1.75 1.74 1.78 1.85 1.83 1.78 1.78 1.77 1.78 1.72 1.76 1.75 1.77 1.76 1.74 1.77 1.82 1.81 1.83 1.85 1.85 1.84 1.85 1.87 1.93 1.90 1.88 1.85 1.83 1.85 1.81 1.77 1.81 1.65 1.46 1.37 1.43 1.48 1.50 1.53 1.53 1.52 1.55 1.55 1.58 1.57
1.89 1.81 1.79 1.80 1.78 1.79 1.78 1.77 1.79 1.79 1.77 1.77 1.75 1.72 1.72 1.72 1.76 1.75 1.71 1.70 1.70 1.67 1.66 1.65 1.67 1.69 1.68 1.65 1.60 1.56 1.51 1.53 1.58 1.59 1.55 1.60 1.64 1.70 1.73 1.82 1.83 1.81 1.85 1.83 1.81 1.86 1.80 1.76 1.74 1.76 1.75 1.74 1.75 1.75 1.80 1.86 1.83 1.79 1.73 1.76 1.80 1.82 1.82 1.90 1.90 1.87 1.85 1.91 1.90 1.91 1.83 1.83 1.66 1.52 1.46 1.42 1.48 1.51 1.51 1.54 1.50 1.52 1.55 1.56 1.53
1.82 1.80 1.82 1.70 1.72 1.78 1.76 1.75 1.75 1.75 1.75 1.76 1.74 1.73 1.76 1.76 1.76 1.73 1.68 1.67 1.69 1.71 1.68 1.70 1.69 1.68 1.67 1.63 1.58 1.53 1.50 1.56 1.58 1.61 1.61 1.62 1.67 1.75 1.72 1.70 1.77 1.83 1.88 1.88 1.83 1.91 1.84 1.74 1.73 1.80 1.77 1.76 1.82 1.81 1.79 1.89 1.87 1.85 1.77 1.78 1.72 1.75 1.81 1.81 1.90 1.85 1.88 1.92 1.95 1.98 1.95 1.97 1.83 1.67 1.47 1.43 1.43 1.47 1.50 1.53 1.48 1.48 1.52 1.55 1.55
1.83 1.80 1.76 1.72 1.73 1.74 1.76 1.72 1.74 1.73 1.76 1.76 1.75 1.75 1.75 1.74 1.72 1.69 1.67 1.65 1.69 1.73 1.72 1.69 1.68 1.69 1.67 1.65 1.59 1.56 1.60 1.59 1.62 1.58 1.63 1.67 1.68 1.71 1.71 1.71 1.81 1.90 1.96 1.93 1.89 1.92 1.89 1.82 1.77 1.80 1.74 1.73 1.77 1.78 1.81 1.88 1.92 1.92 1.91 1.83 1.79 1.84 1.78 1.79 1.86 1.86 1.87 1.87 1.92 1.97 1.99 1.96 1.99 1.85 1.54 1.42 1.42 1.44 1.47 1.53 1.49 1.45 1.51 1.54 1.49
1.81 1.79 1.72 1.68 1.74 1.74 1.70 1.73 1.68 1.69 1.72 1.70 1.71 1.71 1.71 1.71 1.71 1.70 1.70 1.69 1.69 1.68 1.69 1.69 1.66 1.65 1.68 1.65 1.63 1.62 1.64 1.64 1.64 1.67 1.67 1.66 1.63 1.64 1.69 1.76 1.84 1.90 1.95 1.97 1.94 1.90 1.88 1.86 1.74 1.81 1.78 1.72 1.73 1.81 1.81 1.77 1.77 1.80 1.81 1.77 1.85 1.86 1.83 1.79 1.84 1.81 1.81 1.82 1.84 1.91 1.94 1.94 1.93 1.94 1.71 1.42 1.40 1.48 1.47 1.46 1.44 1.44 1.48 1.49 1.51
1.79 1.81 1.80 1.68 1.68 1.78 1.74 1.74 1.69 1.70 1.74 1.71 1.70 1.65 1.69 1.73 1.72 1.72 1.72 1.73 1.71 1.68 1.68 1.67 1.68 1.64 1.66 1.66 1.66 1.65 1.69 1.71 1.69 1.73 1.63 1.57 1.64 1.67 1.76 1.77 1.83 1.88 1.93 1.95 1.93 1.90 1.83 1.80 1.77 1.76 1.76 1.72 1.71 1.72 1.72 1.74 1.71 1.65 1.60 1.67 1.90 1.93 1.88 1.98 1.89 1.87 1.83 1.86 1.79 1.80 1.88 1.93 1.91 1.93 1.88 1.52 1.42 1.43 1.49 1.45 1.42 1.42 1.45 1.46 1.54
1.74 1.72 1.78 1.80 1.75 1.69 1.65 1.71 1.69 1.70 1.70 1.76 1.74 1.68 1.66 1.71 1.74 1.76 1.73 1.74 1.72 1.67 1.69 1.67 1.68 1.66 1.68 1.67 1.69 1.65 1.63 1.73 1.70 1.72 1.69 1.57 1.62 1.63 1.66 1.73 1.77 1.80 1.84 1.86 1.83 1.80 1.68 1.69 1.73 1.68 1.66 1.61 1.61 1.63 1.68 1.68 1.64 1.57 1.54 1.65 1.84 1.94 1.92 1.97 2.02 1.90 1.90 1.86 1.81 1.80 1.81 1.92 1.91 1.90 1.95 1.72 1.48 1.40 1.41 1.46 1.44 1.42 1.44 1.43 1.47
1.68 1.68 1.68 1.73 1.77 1.68 1.62 1.68 1.63 1.65 1.75 1.76 1.77 1.72 1.70 1.66 1.71 1.71 1.73 1.70 1.69 1.69 1.67 1.66 1.65 1.69 1.67 1.66 1.65 1.72 1.80 1.78 1.76 1.77 1.70 1.71 1.67 1.64 1.66 1.68 1.71 1.71 1.74 1.78 1.72 1.68 1.62 1.60 1.55 1.52 1.53 1.56 1.62 1.69 1.70 1.67 1.64 1.62 1.63 1.72 1.79 1.92 1.93 1.83 1.81 1.95 1.95 1.92 1.88 1.87 1.83 1.88 1.93 1.92 2.00 1.88 1.68 1.48 1.41 1.44 1.43 1.41 1.45 1.47 1.40
1.56 1.58 1.63 1.61 1.58 1.62 1.69 1.67 1.64 1.68 1.83 1.74 1.78 1.77 1.71 1.69 1.73 1.72 1.69 1.67 1.65 1.69 1.64 1.67 1.66 1.74 1.66 1.71 1.77 1.79 1.75 1.75 1.79 1.69 1.68 1.77 1.73 1.64 1.61 1.68 1.69 1.68 1.66 1.65 1.65 1.60 1.56 1.50 1.42 1.37 1.39 1.44 1.58 1.72 1.74 1.78 1.76 1.71 1.76 1.85 1.79 1.95 1.83 1.82 1.87 1.86 1.86 1.87 1.89 1.90 1.85 1.85 1.88 1.94 1.95 1.94 1.88 1.70 1.52 1.41 1.43 1.41 1.40 1.45 1.45
1.49 1.54 1.58 1.55 1.56 1.57 1.58 1.59 1.64 1.72 1.72 1.78 1.74 1.68 1.68 1.68 1.73 1.74 1.67 1.73 1.74 1.64 1.67 1.66 1.66 1.80 1.75 1.74 1.76 1.78 1.77 1.78 1.73 1.75 1.71 1.72 1.64 1.58 1.61 1.68 1.67 1.65 1.64 1.67 1.60 1.51 1.46 1.39 1.38 1.43 1.48 1.54 1.72 1.69 1.68 1.75 1.81 1.77 1.79 1.77 1.87 1.93 1.83 1.79 1.81 1.88 1.89 1.85 1.86 1.79 1.76 1.87 1.91 1.95 1.97 1.90 1.84 1.89 1.81 1.59 1.45 1.43 1.41 1.41 1.46
1.46 1.52 1.55 1.66 1.63 1.56 1.65 1.62 1.68 1.73 1.74 1.70 1.62 1.66 1.68 1.70 1.72 1.72 1.71 1.66 1.70 1.65 1.69 1.65 1.72 1.77 1.83 1.72 1.74 1.71 1.71 1.73 1.69 1.66 1.64 1.65 1.76 1.77 1.74 1.71 1.68 1.67 1.57 1.71 1.68 1.56 1.52 1.48 1.48 1.55 1.58 1.64 1.61 1.66 1.57 1.55 1.61 1.66 1.65 1.70 1.73 1.74 1.73 1.67 1.70 1.71 1.89 1.93 1.86 1.74 1.67 1.79 1.90 1.93 1.94 1.91 1.86 1.89 1.90 1.84 1.62 1.49 1.47 1.43 1.41
1.44 1.49 1.54 1.59 1.62 1.57 1.62 1.63 1.70 1.65 1.68 1.67 1.63 1.65 1.72 1.69 1.73 1.68 1.67 1.65 1.70 1.68 1.70 1.68 1.76 1.72 1.74 1.68 1.71 1.63 1.69 1.70 1.71 1.75 1.68 1.71 1.69 1.78 1.86 1.79 1.79 1.68 1.55 1.75 1.77 1.66 1.65 1.65 1.64 1.61 1.63 1.66 1.59 1.56 1.50 1.49 1.51 1.59 1.58 1.53 1.52 1.49 1.50 1.54 1.56 1.57 1.58 1.87 1.94 1.77 1.70 1.70 1.84 1.88 1.89 1.89 1.87 1.90 1.93 1.90 1.87 1.69 1.53 1.49 1.45
1.48 1.42 1.39 1.53 1.60 1.58 1.61 1.60 1.63 1.70 1.69 1.70 1.75 1.75 1.70 1.58 1.57 1.70 1.68 1.68 1.67 1.64 1.67 1.75 1.75 1.70 1.71 1.69 1.71 1.70 1.66 1.61 1.62 1.62 1.66 1.70 1.73 1.78 1.81 1.77 1.69 1.75 1.74 1.75 1.76 1.65 1.62 1.66 1.65 1.57 1.59 1.55 1.53 1.55 1.50 1.50 1.52 1.54 1.50 1.53 1.49 1.38 1.33 1.35 1.35 1.36 1.38 1.47 1.79 1.77 1.69 1.63 1.71 1.85 1.88 1.87 1.86 1.86 1.90 1.93 1.92 1.84 1.68 1.59 1.52
1.43 1.46 1.43 1.47 1.57 1.67 1.67 1.68 1.67 1.68 1.72 1.74 1.74 1.68 1.56 1.60 1.61 1.62 1.60 1.63 1.72 1.67 1.66 1.70 1.71 1.72 1.64 1.67 1.61 1.63 1.62 1.65 1.71 1.69 1.55 1.60 1.69 1.65 1.71 1.68 1.73 1.61 1.69 1.55 1.56 1.55 1.54 1.54 1.55 1.56 1.57 1.53 1.53 1.58 1.59 1.59 1.61 1.58 1.53 1.48 1.41 1.32 1.27 1.26 1.29 1.24 1.26 1.28 1.43 1.57 1.63 1.67 1.64 1.75 1.87 1.93 1.91 1.88 1.87 1.88 1.93 1.90 1.82 1.75 1.63
1.41 1.45 1.44 1.42 1.49 1.55 1.63 1.63 1.62 1.61 1.62 1.74 1.70 1.67 1.63 1.61 1.67 1.62 1.62 1.69 1.68 1.65 1.66 1.66 1.68 1.69 1.67 1.62 1.60 1.67 1.66 1.62 1.60 1.59 1.61 1.64 1.61 1.70 1.76 1.74 1.67 1.61 1.66 1.52 1.50 1.55 1.54 1.55 1.55 1.56 1.55 1.57 1.54 1.54 1.58 1.57 1.60 1.58 1.47 1.35 1.28 1.28 1.31 1.31 1.25 1.20 1.15 1.19 1.33 1.46 1.54 1.59 1.64 1.67 1.82 1.93 1.98 1.96 1.89 1.85 1.86 1.90 1.89 1.85 1.79
1.39 1.42 1.44 1.45 1.48 1.56 1.54 1.54 1.59 1.53 1.55 1.66 1.62 1.64 1.65 1.63 1.68 1.66 1.57 1.65 1.60 1.61 1.63 1.68 1.66 1.68 1.69 1.58 1.61 1.55 1.58 1.63 1.69 1.72 1.74 1.70 1.72 1.70 1.67 1.66 1.72 1.76 1.79 1.69 1.58 1.51 1.51 1.57 1.58 1.57 1.55 1.51 1.50 1.51 1.54 1.53 1.54 1.45 1.37 1.31 1.28 1.28 1.27 1.24 1.21 1.15 1.12 1.13 1.19 1.39 1.49 1.59 1.65 1.68 1.74 1.85 1.94 1.98 1.96 1.88 1.84 1.90 1.93 1.95 1.91
1.48 1.47 1.45 1.47 1.52 1.53 1.50 1.55 1.59 1.55 1.55 1.54 1.57 1.60 1.65 1.56 1.60 1.67 1.68 1.67 1.63 1.66 1.71 1.66 1.65 1.65 1.66 1.65 1.56 1.56 1.62 1.74 1.79 1.79 1.67 1.69 1.63 1.59 1.61 1.62 1.68 1.71 1.69 1.69 1.65 1.53 1.49 1.56 1.56 1.52 1.48 1.46 1.45 1.49 1.47 1.45 1.43 1.37 1.41 1.32 1.26 1.20 1.27 1.28 1.18 1.13 1.14 1.22 1.24 1.41 1.54 1.50 1.56 1.60 1.70 1.77 1.85 1.95 1.96 1.92 1.86 1.89 1.97 1.97 1.93
1.50 1.46 1.48 1.49 1.51 1.50 1.52 1.56 1.55 1.55 1.57 1.53 1.56 1.55 1.66 1.63 1.63 1.66 1.68 1.62 1.58 1.59 1.64 1.68 1.68 1.71 1.73 1.75 1.74 1.68 1.80 1.77 1.78 1.77 1.75 1.68 1.68 1.50 1.50 1.60 1.55 1.62 1.74 1.71 1.87 1.60 1.57 1.55 1.52 1.43 1.39 1.39 1.41 1.47 1.49 1.38 1.34 1.34 1.34 1.26 1.18 1.23 1.32 1.29 1.16 1.25 1.20 1.29 1.30 1.32 1.58 1.54 1.45 1.49 1.63 1.72 1.76 1.85 1.94 1.97 1.94 1.90 1.92 1.92 1.91
1.44 1.45 1.49 1.52 1.51 1.46 1.49 1.53 1.53 1.52 1.49 1.47 1.53 1.51 1.55 1.62 1.65 1.62 1.62 1.62 1.55 1.60 1.61 1.64 1.64 1.70 1.87 1.98 1.78 1.78 1.67 1.63 1.71 1.71 1.73 1.64 1.61 1.53 1.56 1.52 1.53 1.66 1.68 1.70 1.81 1.73 1.71 1.65 1.59 1.52 1.46 1.44 1.44 1.44 1.43 1.34 1.32 1.29 1.24 1.21 1.16 1.23 1.30 1.19 1.26 1.32 1.29 1.27 1.23 1.19 1.28 1.46 1.48 1.50 1.49 1.60 1.70 1.75 1.80 1.90 1.94 1.90 1.87 1.86 1.87
1.45 1.47 1.49 1.49 1.48 1.47 1.50 1.50 1.54 1.54 1.46 1.44 1.48 1.51 1.57 1.61 1.60 1.59 1.60 1.62 1.60 1.60 1.60 1.63 1.66 1.63 1.82 1.85 1.84 1.78 1.79 1.68 1.61 1.58 1.57 1.58 1.51 1.51 1.50 1.46 1.55 1.67 1.68 1.67 1.68 1.71 1.75 1.74 1.72 1.67 1.55 1.46 1.38 1.35 1.34 1.32 1.25 1.24 1.22 1.22 1.18 1.21 1.20 1.15 1.29 1.33 1.26 1.20 1.28 1.30 1.20 1.23 1.43 1.51 1.48 1.45 1.53 1.63 1.68 1.75 1.82 1.91 1.88 1.87 1.86
1.40 1.44 1.46 1.44 1.50 1.54 1.55 1.55 1.56 1.57 1.53 1.49 1.54 1.54 1.56 1.57 1.57 1.57 1.61 1.62 1.62 1.62 1.59 1.63 1.68 1.67 1.72 1.78 1.76 1.79 1.73 1.68 1.66 1.64 1.55 1.51 1.56 1.51 1.47 1.46 1.55 1.61 1.69 1.80 1.75 1.61 1.63 1.64 1.74 1.58 1.42 1.38 1.32 1.29 1.24 1.19 1.21 1.23 1.21 1.22 1.18 1.16 1.10 1.16 1.22 1.29 1.37 1.29 1.22 1.19 1.15 1.10 1.13 1.39 1.48 1.55 1.47 1.47 1.49 1.58 1.72 1.78 1.83 1.85 1.82
1.39 1.38 1.39 1.43 1.48 1.53 1.55 1.54 1.58 1.57 1.56 1.51 1.52 1.53 1.52 1.50 1.52 1.53 1.54 1.58 1.59 1.57 1.64 1.71 1.71 1.69 1.76 1.90 1.89 1.81 1.75 1.76 1.82 1.66 1.66 1.62 1.50 1.45 1.45 1.56 1.63 1.66 1.65 1.77 1.70 1.61 1.56 1.49 1.56 1.44 1.39 1.34 1.31 1.23 1.18 1.18 1.20 1.21 1.25 1.23 1.16 1.17 1.11 1.18 1.20 1.25 1.31 1.29 1.33 1.31 1.26 1.19 1.03 1.03 1.34 1.39 1.58 1.57 1.45 1.39 1.60 1.72 1.73 1.74 1.75
1.34 1.37 1.39 1.42 1.43 1.49 1.55 1.55 1.60 1.57 1.58 1.51 1.50 1.48 1.45 1.45 1.46 1.49 1.52 1.54 1.54 1.58 1.68 1.73 1.72 1.76 1.80 1.84 1.88 1.85 1.80 1.80 1.70 1.71 1.65 1.54 1.48 1.40 1.37 1.42 1.56 1.65 1.75 1.72 1.68 1.61 1.56 1.52 1.51 1.43 1.30 1.28 1.22 1.12 1.09 1.11 1.16 1.20 1.23 1.19 1.16 1.17 1.11 1.13 1.20 1.26 1.30 1.33 1.34 1.44 1.44 1.48 1.41 1.25 1.15 1.21 1.32 1.52 1.58 1.52 1.39 1.49 1.62 1.67 1.69
1.32 1.34 1.32 1.34 1.38 1.43 1.51 1.50 1.52 1.55 1.54 1.54 1.50 1.44 1.41 1.39 1.39 1.43 1.48 1.53 1.58 1.66 1.80 1.80 1.72 1.76 1.85 1.83 1.86 1.83 1.78 1.69 1.62 1.55 1.51 1.43 1.39 1.41 1.42 1.48 1.72 1.79 1.82 1.83 1.80 1.72 1.56 1.49 1.51 1.47 1.36 1.23 1.17 1.07 0.98 0.92 1.04 1.11 1.13 1.08 1.11 1.13 1.15 1.15 1.20 1.26 1.36 1.34 1.34 1.42 1.46 1.52 1.52 1.46 1.33 1.23 1.38 1.24 1.45 1.48 1.33 1.29 1.43 1.54 1.63
1.28 1.31 1.35 1.32 1.32 1.37 1.41 1.47 1.53 1.58 1.56 1.53 1.51 1.45 1.40 1.37 1.40 1.45 1.51 1.56 1.60 1.68 1.78 1.74 1.71 1.78 1.75 1.69 1.73 1.71 1.67 1.59 1.48 1.43 1.40 1.38 1.38 1.40 1.52 1.65 1.71 1.71 1.67 1.79 1.75 1.68 1.61 1.49 1.40 1.42 1.32 1.13 1.01 0.88 0.78 0.84 0.96 1.00 0.95 1.04 1.13 1.08 1.16 1.21 1.25 1.31 1.33 1.33 1.32 1.30 1.37 1.41 1.46 1.48 1.64 1.53 1.52 1.49 1.46 1.43 1.37 1.35 1.31 1.39 1.51
1.25 1.28 1.33 1.34 1.34 1.35 1.37 1.40 1.46 1.53 1.56 1.55 1.53 1.49 1.45 1.43 1.43 1.44 1.48 1.53 1.60 1.70 1.68 1.66 1.69 1.71 1.72 1.72 1.70 1.70 1.72 1.64 1.49 1.51 1.60 1.56 1.46 1.49 1.53 1.60 1.72 1.75 1.74 1.73 1.68 1.62 1.65 1.51 1.32 1.20 1.12 0.97 0.80 0.72 0.76 0.77 0.90 0.96 1.06 1.12 1.11 1.12 1.17 1.24 1.29 1.34 1.35 1.35 1.28 1.27 1.35 1.38 1.38 1.40 1.41 1.46 1.51 1.56 1.70 1.50 1.57 1.55 1.60 1.50 1.41
1.24 1.25 1.27 1.29 1.30 1.30 1.32 1.34 1.39 1.45 1.52 1.52 1.48 1.45 1.45 1.43 1.40 1.42 1.46 1.50 1.57 1.63 1.63 1.56 1.56 1.60 1.71 1.68 1.69 1.72 1.68 1.63 1.60 1.61 1.70 1.76 1.68 1.69 1.76 1.77 1.87 1.79 1.72 1.70 1.61 1.55 1.44 1.32 1.19 1.07 0.80 0.74 0.83 0.95 1.05 1.05 1.00 1.00 1.03 1.02 1.13 1.11 1.09 1.20 1.28 1.31 1.36 1.34 1.35 1.29 1.30 1.35 1.32 1.31 1.28 1.35 1.40 1.41 1.43 1.52 1.51 1.54 1.64 1.65 1.64
1.22 1.25 1.22 1.23 1.26 1.26 1.24 1.21 1.29 1.36 1.40 1.47 1.44 1.42 1.40 1.45 1.45 1.44 1.44 1.55 1.65 1.68 1.54 1.55 1.51 1.56 1.52 1.55 1.64 1.64 1.64 1.63 1.63 1.62 1.66 1.65 1.60 1.62 1.65 1.75 1.72 1.66 1.67 1.66 1.59 1.50 1.35 1.28 1.08 0.87 0.77 0.81 0.90 0.99 1.08 1.05 0.93 0.88 1.11 1.15 1.07 1.11 1.08 1.21 1.24 1.27 1.29 1.31 1.32 1.24 1.16 1.19 1.22 1.21 1.26 1.26 1.26 1.27 1.34 1.37 1.42 1.48 1.58 1.62 1.60
1.16 1.21 1.20 1.22 1.27 1.29 1.23 1.20 1.25 1.28 1.31 1.38 1.51 1.57 1.52 1.47 1.41 1.34 1.47 1.71 1.68 1.56 1.47 1.54 1.55 1.53 1.54 1.55 1.58 1.61 1.64 1.68 1.67 1.64 1.59 1.59 1.58 1.75 1.78 1.81 1.77 1.70 1.63 1.60 1.52 1.45 1.31 1.09 0.93 0.77 1.00 0.96 0.85 0.91 1.01 0.89 0.84 0.95 0.97 0.97 0.89 1.00 1.16 1.20 1.29 1.22 1.25 1.26 1.24 1.16 1.09 1.05 1.06 1.08 1.15 1.20 1.21 1.19 1.23 1.25 1.31 1.37 1.46 1.47 1.54
1.16 1.18 1.24 1.26 1.28 1.27 1.26 1.24 1.24 1.28 1.31 1.35 1.44 1.54 1.57 1.53 1.50 1.48 1.52 1.61 1.60 1.54 1.56 1.60 1.62 1.65 1.71 1.73 1.68 1.65 1.60 1.60 1.71 1.70 1.65 1.70 1.71 1.75 1.71 1.76 1.74 1.64 1.44 1.44 1.45 1.29 1.08 0.96 0.86 0.86 0.90 0.99 1.02 1.12 1.07 1.06 0.87 0.95 0.84 0.67 0.84 0.79 1.13 1.06 1.21 1.25 1.31 1.29 1.27 1.19 1.12 1.00 1.01 1.02 1.05 1.09 1.12 1.18 1.20 1.22 1.24 1.29 1.30 1.32 1.34
1.15 1.16 1.20 1.22 1.25 1.26 1.26 1.25 1.27 1.34 1.38 1.41 1.42 1.51 1.60 1.59 1.53 1.53 1.57 1.60 1.57 1.56 1.61 1.71 1.71 1.68 1.68 1.75 1.72 1.66 1.66 1.70 1.70 1.68 1.68 1.69 1.77 1.69 1.68 1.59 1.51 1.47 1.40 1.26 1.13 0.98 0.98 0.92 0.94 0.99 1.02 0.94 1.03 1.12 1.25 1.20 1.03 0.92 0.76 0.85 0.87 0.73 0.61 1.01 1.17 1.28 1.32 1.26 1.25 1.21 1.16 1.00 0.98 0.95 0.96 0.98 1.04 1.10 1.11 1.14 1.11 1.11 1.13 1.11 1.18
1.11 1.12 1.15 1.20 1.23 1.26 1.29 1.28 1.31 1.35 1.39 1.43 1.46 1.50 1.57 1.58 1.57 1.55 1.54 1.58 1.66 1.70 1.65 1.59 1.67 1.67 1.65 1.71 1.64 1.71 1.68 1.65 1.56 1.60 1.66 1.65 1.64 1.60 1.52 1.46 1.44 1.37 1.26 1.11 1.04 0.99 0.94 0.90 1.03 1.02 1.00 1.00 0.94 0.99 1.16 1.13 1.13 1.07 0.84 0.66 0.78 0.93 1.05 1.12 1.06 1.10 1.26 1.24 1.26 1.22 1.10 1.07 1.00 0.95 0.96 0.91 0.99 1.02 1.04 1.01 1.04 1.06 1.06 1.07 1.09
1.08 1.15 1.21 1.24 1.28 1.32 1.35 1.35 1.34 1.37 1.38 1.40 1.44 1.46 1.45 1.50 1.53 1.43 1.32 1.38 1.45 1.47 1.36 1.32 1.43 1.50 1.54 1.68 1.82 1.77 1.76 1.71 1.66 1.60 1.60 1.60 1.52 1.46 1.41 1.37 1.32 1.27 1.21 1.14 1.08 0.98 0.85 1.02 1.12 1.05 0.97 1.04 0.99 0.93 0.91 1.12 1.03 1.05 0.92 0.69 0.76 0.91 1.00 1.13 1.01 0.89 1.18 1.21 1.19 1.11 1.04 1.09 1.04 1.01 1.00 1.00 0.91 0.92 0.95 0.97 0.93 0.92 0.90 0.96 0.98
1.12 1.22 1.26 1.29 1.31 1.33 1.40 1.43 1.40 1.41 1.43 1.43 1.44 1.44 1.42 1.44 1.50 1.45 1.43 1.44 1.38 1.41 1.48 1.47 1.48 1.51 1.50 1.52 1.66 1.75 1.75 1.75 1.71 1.64 1.58 1.52 1.46 1.41 1.36 1.29 1.27 1.28 1.28 1.17 0.99 0.96 1.17 1.19 1.18 1.04 0.98 1.07 1.06 0.88 0.73 0.93 1.05 1.01 1.11 1.08 1.09 1.08 1.00 0.88 0.88 0.93 0.94 1.04 1.07 0.99 1.10 1.08 1.05 1.00 0.99 0.97 0.97 0.94 0.91 0.90 0.88 0.92 0.93 0.90 0.95
1.20 1.23 1.24 1.27 1.27 1.28 1.36 1.42 1.48 1.45 1.48 1.48 1.45 1.46 1.39 1.42 1.46 1.44 1.46 1.46 1.40 1.35 1.34 1.35 1.39 1.40 1.45 1.62 1.71 1.64 1.73 1.70 1.56 1.55 1.52 1.49 1.43 1.41 1.36 1.31 1.28 1.27 1.24 1.09 1.03 1.04 1.13 1.19 1.09 1.06 1.02 1.03 1.02 0.91 0.94 1.15 0.85 1.09 1.22 1.20 1.18 1.20 1.07 1.03 0.94 0.79 0.73 0.69 0.83 0.92 1.03 1.08 1.08 1.07 1.06 1.03 0.99 1.01 0.96 0.93 0.92 0.89 0.94 0.95 0.91
1.26 1.26 1.25 1.24 1.28 1.30 1.36 1.42 1.47 1.47 1.48 1.47 1.44 1.44 1.44 1.44 1.45 1.51 1.44 1.41 1.37 1.28 1.27 1.34 1.35 1.34 1.43 1.53 1.54 1.58 1.59 1.52 1.48 1.50 1.48 1.46 1.41 1.37 1.37 1.34 1.31 1.29 1.23 1.16 1.21 1.14 1.06 0.96 1.07 1.06 1.10 1.02 0.99 1.01 0.99 1.00 1.00 1.13 1.13 1.18 1.15 1.07 1.07 1.05 0.99 0.94 0.74 0.78 0.78 0.83 0.92 1.03 1.04 1.11 1.15 1.12 1.05 1.04 1.04 1.05 1.01 0.95 0.94 0.97 0.96
1.32 1.35 1.32 1.30 1.31 1.33 1.34 1.34 1.38 1.47 1.50 1.47 1.41 1.38 1.42 1.44 1.45 1.50 1.45 1.38 1.28 1.23 1.29 1.31 1.25 1.31 1.31 1.43 1.47 1.43 1.42 1.43 1.39 1.44 1.47 1.48 1.45 1.41 1.35 1.30 1.28 1.24 1.25 1.24 1.24 1.18 1.04 0.94 0.95 1.01 0.99 0.95 0.99 0.98 0.98 0.99 1.04 1.11 1.11 1.16 1.08 1.05 1.00 0.96 0.94 1.00 1.06 1.00 0.85 0.83 0.86 0.87 0.88 1.02 1.09 1.06 1.06 1.08 1.08 1.12 1.07 1.07 1.02 0.97 1.00
1.31 1.37 1.33 1.30 1.31 1.30 1.30 1.29 1.34 1.45 1.47 1.44 1.36 1.30 1.33 1.37 1.39 1.49 1.46 1.34 1.27 1.24 1.27 1.29 1.22 1.29 1.33 1.36 1.37 1.33 1.35 1.36 1.39 1.43 1.44 1.45 1.46 1.44 1.34 1.29 1.31 1.33 1.31 1.28 1.22 1.18 1.16 1.09 1.00 0.95 0.91 0.91 0.97 0.99 0.88 0.96 0.98 1.04 1.06 0.98 1.00 1.02 0.97 0.88 0.92 0.99 0.88 0.84 0.85 0.83 0.88 0.88 0.89 0.82 0.94 1.10 1.12 1.13 1.10 1.12 1.11 1.08 1.06 1.01 1.02
Wind_Speed
15 16 16 16 17 18 19 20 20 20 20 20 20 20 19 19 18 18 17 17 16 16 16 16 16 16 15 14 14 13 12 11 10 10 9 9 9 9 9 9 9 9 9 9 9 9 9 9 9 9 9 9 8 8 8 8 7 7 7 8 8 7 7 8 8 8 8 7 7 8 9 9 9 8 8 7 7 7 6 6 7 7 7 8 8
15 16 16 16 18 19 20 20 20 20 20 19 19 19 18 18 17 17 17 16 15 15 15 15 15 15 14 13 12 12 11 10 9 9 8 8 8 9 9 9 9 9 8 8 8 8 8 8 9 9 9 8 8 8 8 7 7 6 6 6 6 7 7 7 7 7 7 7 7 7 8 9 9 9 8 7 7 7 7 7 7 7 8 9 9
16 16 16 17 18 19 19 20 19 19 18 19 18 17 17 17 17 16 16 15 15 15 15 15 15 14 13 12 11 10 9 9 9 8 8 8 8 8 9 8 8 8 8 8 8 8 8 8 8 8 8 8 8 8 8 7 7 6 6 6 5 6 6 6 6 7 7 6 6 6 7 8 9 9 8 8 8 8 7 8 8 8 9 10 10
16 16 16 17 18 19 19 19 19 18 17 18 17 16 16 16 16 16 15 15 15 14 14 14 14 13 12 11 10 9 9 8 8 8 7 8 8 8 8 8 8 8 8 7 7 7 7 7 7 8 8 8 8 7 7 7 7 7 6 5 5 5 5 5 6 6 6 6 6 5 6 6 7 8 8 8 8 7 8 8 8 9 9 10 10
16 16 16 17 18 19 19 19 18 17 17 17 16 16 15 15 15 15 15 15 14 14 13 13 12 12 11 10 9 9 8 8 8 7 7 7 8 8 8 8 7 7 7 7 7 6 6 7 7 7 7 7 8 7 7 7 7 6 6 5 5 5 5 5 5 5 5 6 5 5 5 6 6 7 7 7 7 7 7 7 8 8 9 9 10
16 16 16 17 17 18 18 18 17 17 16 16 16 15 15 15 15 15 15 14 14 13 13 12 12 11 10 9 9 8 8 7 7 7 7 7 8 8 7 7 7 7 7 6 6 6 6 6 6 6 6 7 7 7 7 7 7 6 6 5 5 5 5 5 5 4 4 5 5 4 5 5 5 6 7 7 7 8 7 7 7 8 8 9 9
16 16 16 16 17 17 17 17 17 17 16 15 15 15 15 15 15 14 14 14 13 13 12 12 11 11 10 9 9 8 7 7 7 7 7 7 7 7 7 7 6 6 6 6 6 6 6 6 6 6 6 6 6 6 6 6 6 6 6 5 5 5 5 5 5 4 4 4 5 4 5 5 5 5 6 7 7 7 7 7 7 7 8 8 8
16 16 16 16 16 16 16 16 16 16 15 15 15 15 14 14 14 14 13 13 13 13 12 12 11 11 10 9 8 7 7 7 6 6 7 7 7 6 6 6 6 6 6 5 5 5 5 6 6 6 6 6 6 6 6 6 6 6 6 6 5 5 4 5 5 4 4 4 4 5 4 5 5 5 6 6 7 7 7 7 7 7 7 7 8
15 15 15 15 16 16 16 15 15 15 14 14 14 14 14 14 14 13 13 13 13 12 12 11 11 10 10 9 8 7 7 6 6 6 7 6 6 6 6 6 6 5 5 5 6 6 5 5 5 6 6 6 6 6 6 6 6 6 6 6 6 5 5 5 5 4 4 3 4 4 4 4 4 5 5 5 6 6 6 6 7 7 7 7 7
14 14 14 14 15 15 15 14 14 14 13 14 14 14 14 13 13 13 13 13 12 12 11 11 10 10 9 8 7 7 6 6 6 6 6 6 6 5 5 5 5 5 5 5 6 6 5 5 5 5 5 5 5 5 5 5 6 6 5 6 6 5 5 5 5 4 4 3 4 4 4 4 4 4 4 5 5 5 5 5 6 6 7 7 7
14 14 14 14 14 14 14 14 13 13 13 13 13 13 13 13 13 13 12 12 12 11 11 10 9 9 8 8 7 7 6 6 6 6 6 5 5 5 5 5 5 5 5 5 5 5 5 5 5 5 5 5 5 5 5 5 5 5 5 5 6 6 5 4 4 4 4 3 3 3 3 4 4 4 4 4 4 5 5 5 5 6 6 7 7
14 14 14 14 14 14 13 13 13 12 12 13 13 13 13 13 12 12 12 12 11 11 10 9 9 9 8 7 7 6 6 6 5 5 5 5 5 4 4 5 5 5 5 5 5 5 5 5 5 5 5 5 5 5 5 5 5 4 5 5 5 5 5 4 4 4 4 4 3 3 3 3 3 4 4 4 4 4 4 5 5 6 6 6 7
14 13 14 14 14 13 13 13 12 12 12 13 13 13 13 13 12 12 12 12 11 10 9 9 9 8 8 7 6 6 6 5 5 5 5 4 4 4 4 4 4 4 4 4 4 4 5 5 5 5 5 5 5 5 5 5 5 4 4 4 4 5 4 4 4 4 5 4 3 3 2 3 3 4 4 3 3 3 4 4 5 5 5 6 6
13 13 14 14 13 13 13 12 13 13 13 13 13 13 13 12 12 12 11 11 10 10 9 9 8 8 7 7 6 6 6 5 5 5 4 4 4 4 4 4 4 4 4 4 4 4 4 5 5 4 5 5 5 5 5 5 5 5 5 4 4 5 4 3 3 3 4 3 3 3 2 2 3 3 3 3 3 3 3 4 4 4 5 5 5
14 14 14 13 13 13 13 13 13 13 13 13 13 13 12 12 12 11 11 10 10 9 9 9 8 8 7 7 6 6 6 5 5 5 4 4 4 5 5 5 5 4 4 4 5 5 4 4 5 4 5 5 5 5 5 5 5 5 5 5 4 4 4 3 2 2 3 3 3 2 2 2 2 2 2 3 2 2 3 4 4 4 4 5 5
14 14 13 13 13 13 13 13 13 13 13 13 12 12 12 11 11 11 10 10 9 9 9 9 8 8 7 7 6 6 6 5 5 4 4 4 4 5 5 6 6 6 5 6 6 5 4 4 4 4 5 5 5 5 5 5 5 5 5 5 5 4 3 2 2 2 2 2 2 1 1 1 1 2 2 2 2 2 3 3 4 4 5 5 5
13 13 13 13 13 13 13 13 13 13 13 12 12 12 11 11 10 10 10 9 9 9 9 9 8 8 7 7 6 6 5 5 5 4 4 4 5 4 5 6 6 6 6 6 6 6 4 4 4 4 4 5 5 5 5 6 5 5 5 5 5 4 4 3 2 2 2 2 2 1 1 1 1 1 1 2 2 2 3 3 4 4 4 5 5
13 13 13 13 13 13 13 13 13 13 13 12 12 11 10 10 10 9 9 9 9 8 8 8 8 7 7 6 6 5 5 5 5 4 4 4 4 4 5 5 6 6 6 7 7 6 5 4 4 4 4 5 5 5 5 6 6 6 6 6 5 4 4 3 2 3 3 3 3 2 2 2 2 2 2 1 2 2 3 3 4 4 4 5 5
12 12 12 12 12 12 12 13 13 13 12 12 11 11 10 10 9 9 9 8 8 8 8 8 8 7 6 6 5 5 5 4 4 4 4 4 4 4 4 5 5 6 6 7 6 6 6 5 4 5 5 4 5 5 5 6 6 6 6 6 5 4 5 4 4 4 3 4 3 3 3 3 3 3 3 2 2 2 3 3 3 4 4 4 5
12 12 12 12 12 12 12 13 13 13 12 11 11 10 10 9 9 9 8 8 8 8 8 8 7 6 6 5 5 4 4 4 4 4 3 3 3 4 4 5 5 5 6 6 6 5 5 5 5 5 5 4 5 5 6 6 6 7 6 7 6 5 4 5 5 5 4 4 4 3 3 3 3 4 4 4 3 3 3 3 3 4 4 4 4
11 12 12 12 12 12 12 12 13 12 11 11 10 10 10 9 9 9 8 8 9 8 8 7 7 6 5 5 4 4 3 3 3 3 3 3 3 4 4 4 5 5 5 5 5 5 5 5 5 5 5 5 5 6 6 6 7 7 7 7 7 6 5 5 5 5 4 4 4 3 3 3 3 4 5 5 4 4 4 4 4 4 4 4 5
12 12 12 13 13 13 13 12 12 12 11 10 10 9 9 9 8 9 8 9 9 8 8 7 6 5 5 4 3 3 3 2 2 2 2 3 3 4 4 4 4 5 5 5 5 5 5 5 5 6 6 6 6 6 6 6 7 8 8 8 8 7 7 6 6 5 5 5 4 3 3 3 3 4 5 5 5 5 5 4 4 4 4 5 5
13 13 13 13 13 12 13 12 12 11 11 10 9 9 9 9 8 9 9 8 8 8 7 6 5 4 4 3 3 3 2 2 2 2 2 2 3 3 4 4 4 4 4 4 4 4 4 5 5 5 5 5 6 6 6 7 7 8 8 8 8 8 8 7 6 6 6 5 4 4 4 4 3 4 5 6 6 6 6 6 5 5 5 5 5
13 13 13 13 13 13 12 12 12 11 11 10 9 9 9 8 8 9 8 8 8 7 6 5 4 4 3 3 2 2 2 2 2 2 2 2 2 3 3 4 4 4 4 4 4 4 4 4 5 5 5 5 6 6 7 7 7 8 8 8 8 8 8 8 7 7 7 6 5 4 4 4 5 5 5 6 7 7 7 7 7 7 6 6 6
14 13 13 13 13 13 12 12 11 11 10 10 9 9 9 8 8 8 8 7 7 6 5 4 4 3 3 2 2 2 1 1 2 2 2 2 3 3 3 4 4 4 4 4 4 4 4 4 4 5 6 6 6 7 7 8 8 8 8 8 8 8 8 8 8 8 7 6 5 5 5 5 6 6 6 6 7 8 8 8 8 8 8 8 7
14 14 14 13 13 13 12 11 11 11 10 9 9 9 8 8 8 7 7 6 6 5 4 4 3 3 2 2 2 1 1 1 1 1 2 2 2 2 2 3 4 4 4 4 4 4 4 4 5 5 5 6 6 7 8 8 8 9 9 8 9 9 9 8 8 8 8 7 6 6 6 6 6 6 7 7 7 8 9 9 9 9 9 9 9
14 14 14 13 13 12 12 11 10 11 10 10 9 9 8 8 7 7 6 6 5 5 4 3 3 3 3 2 2 2 1 1 1 0 1 1 2 2 3 3 3 3 4 4 3 4 4 4 4 5 6 6 7 7 8 8 8 9 9 9 9 9 9 8 8 8 8 7 6 6 6 6 6 7 7 7 8 8 8 9 10 10 10 10 10
14 14 13 13 13 12 12 11 11 11 10 10 9 8 8 7 6 6 6 5 5 4 4 3 3 3 3 2 2 2 1 1 1 0 1 1 2 2 2 3 3 3 3 3 3 3 4 4 5 5 6 6 7 8 8 8 9 9 9 9 9 9 9 8 8 8 8 7 6 6 6 5 6 6 6 7 7 7 8 9 10 10 11 11 11
15 14 13 13 13 12 12 11 11 11 10 10 9 8 7 7 6 6 6 5 5 4 4 4 3 3 2 3 2 2 1 1 0 0 1 1 2 2 2 2 3 3 3 3 3 4 4 4 5 5 6 6 7 8 8 9 9 9 9 9 9 9 9 9 9 9 8 7 6 5 5 5 5 5 6 6 6 7 7 8 9 10 11 11 12
15 14 13 13 12 12 11 11 11 10 10 9 9 7 7 7 6 6 6 6 5 5 4 4 3 3 3 3 3 2 2 1 1 1 1 1 2 2 2 2 2 3 3 4 4 4 5 5 5 6 6 7 7 8 8 9 9 8 8 8 9 9 9 9 9 9 8 7 6 5 5 5 5 5 5 5 6 7 7 8 8 9 10 11 11
15 14 13 12 12 12 11 11 11 10 10 9 8 8 7 7 7 7 6 6 6 5 4 4 4 3 3 3 3 3 3 3 2 2 2 2 3 3 2 3 3 3 3 4 4 4 5 5 6 6 7 8 8 8 8 8 8 8 8 8 9 9 9 10 10 9 8 7 7 5 5 5 4 5 5 5 5 6 7 7 8 8 9 10 11
15 14 13 12 12 12 11 11 11 10 10 9 8 8 7 7 7 7 6 6 6 6 5 5 4 4 4 3 4 4 4 4 3 3 3 3 3 3 3 3 3 3 3 4 4 5 6 6 6 7 8 8 8 8 8 8 8 8 9 9 9 9 9 10 10 9 8 7 7 6 5 5 4 5 5 5 6 6 6 7 8 8 9 10 11
14 14 14 13 12 12 12 11 11 11 10 10 9 8 8 8 7 7 7 6 6 6 5 5 5 5 4 4 4 4 4 4 4 4 4 4 4 4 4 4 4 4 4 4 5 6 6 6 7 7 8 8 8 8 8 8 8 9 9 9 9 9 10 10 9 9 8 7 6 6 6 5 5 5 5 5 6 6 6 6 7 8 8 9 10
14 14 14 14 13 12 11 11 11 11 11 10 9 8 8 8 8 7 7 7 6 6 5 5 5 5 5 5 5 5 5 5 5 4 4 5 5 4 4 4 4 4 5 5 6 6 6 7 7 8 8 8 8 8 8 8 9 9 9 9 9 9 10 9 9 9 8 7 7 6 6 6 5 5 5 5 6 6 6 6 7 8 8 9 9
15 14 14 14 13 12 12 11 12 12 11 11 10 9 9 8 8 8 8 7 7 6 6 6 6 6 6 6 6 6 5 5 5 5 5 5 5 5 5 5 5 5 5 6 6 7 7 8 8 9 9 9 8 9 9 9 9 9 9 9 9 9 10 9 9 9 8 8 7 7 6 6 6 5 5 5 5 5 6 7 7 7 8 9 9
16 14 14 14 14 13 12 12 12 12 12 11 11 10 10 9 9 8 8 8 8 7 7 6 6 6 6 6 6 6 5 5 5 5 5 5 6 6 6 6 6 6 6 7 7 7 8 8 9 9 9 9 9 10 10 9 9 9 9 9 9 9 9 9 9 8 8 8 7 7 7 6 6 6 5 5 5 6 6 6 7 8 8 9 9
16 15 14 14 14 14 13 12 12 12 12 12 11 11 11 10 9 9 9 9 8 8 7 7 7 6 6 6 6 6 6 6 6 6 6 6 6 6 6 6 7 7 7 8 8 8 8 8 9 9 9 10 10 11 11 10 10 10 10 10 9 8 9 9 8 8 8 8 8 7 7 7 7 6 6 5 5 6 7 7 7 8 9 9 9
16 15 15 14 14 14 13 13 12 12 12 11 11 11 11 11 10 10 10 10 9 9 8 8 8 8 7 7 7 6 6 7 6 6 7 7 7 7 7 7 7 7 8 9 9 9 9 9 9 10 11 12 12 12 11 11 11 10 11 10 9 8 8 8 8 8 8 8 8 8 7 7 7 7 6 5 5 6 7 7 7 8 8 9 9
16 16 15 15 14 14 13 13 13 12 12 11 11 11 11 11 11 11 11 11 10 10 9 9 9 9 8 8 8 7 7 7 7 7 7 8 8 8 9 9 8 9 9 9 9 9 9 10 10 12 13 13 12 12 11 11 11 11 11 11 9 8 8 8 8 8 8 8 8 8 7 7 7 7 7 6 6 6 6 7 7 8 8 8 9
16 16 16 15 14 14 13 13 13 13 12 11 11 12 11 11 11 11 11 11 11 10 10 10 9 9 9 9 9 8 8 8 8 8 8 8 9 9 10 10 10 10 10 10 10 10 10 11 12 13 14 12 11 11 11 10 10 10 11 10 9 8 8 8 8 8 8 8 8 8 7 7 7 7 7 7 7 7 7 6 7 7 7 8 8
17 16 16 16 15 14 14 14 14 14 13 12 12 12 12 11 11 11 11 11 10 10 10 10 9 9 9 9 9 9 9 9 9 9 10 10 10 10 11 11 11 11 10 10 10 11 11 12 13 13 12 11 11 11 10 10 10 10 10 10 9 8 7 7 7 7 7 7 7 7 7 8 8 7 7 8 8 8 8 7 7 7 7 7 7
17 17 16 16 15 15 15 15 14 14 14 13 12 12 12 12 11 11 11 11 10 10 10 9 9 9 10 10 9 9 10 10 10 11 11 11 11 11 11 11 11 11 10 11 11 11 12 13 13 12 12 11 11 10 10 10 10 9 9 10 9 7 6 7 7 7 7 7 7 7 7 7 8 8 8 8 8 8 8 8 8 7 7 8 8
17 17 17 16 16 16 15 15 15 15 14 14 13 13 12 12 12 11 10 10 10 10 9 9 9 10 10 10 10 10 10 11 11 11 11 11 11 11 11 11 10 10 11 11 12 12 12 12 12 12 11 11 11 10 10 10 10 9 9 9 9 7 6 6 7 6 7 7 7 7 7 7 8 8 8 8 8 8 8 8 8 8 8 8 9
18 17 17 17 17 17 16 16 16 15 15 14 14 14 13 13 12 11 10 10 10 9 9 9 9 10 10 10 10 11 11 11 11 11 11 11 11 11 10 10 10 11 11 11 11 11 11 11 11 11 10 11 10 9 9 9 9 9 9 9 8 8 7 6 6 6 7 7 6 7 7 7 7 8 8 8 7 7 8 8 8 8 9 9 9
18 18 18 18 17 17 17 17 16 16 15 15 15 14 14 13 12 12 11 11 10 10 10 10 10 10 10 11 11 12 12 12 11 11 11 10 10 10 10 10 10 11 11 10 10 11 11 11 11 11 10 10 10 9 9 9 9 9 9 9 9 8 8 7 7 7 7 7 6 6 7 7 7 7 8 8 8 8 8 8 9 9 9 9 9
19 19 18 18 18 17 18 18 17 16 16 15 15 15 14 14 13 12 11 11 11 11 11 11 10 11 11 11 11 11 11 11 11 10 10 10 10 9 10 10 9 10 10 10 10 10 11 10 10 11 10 10 10 10 9 9 9 9 9 9 9 8 8 8 8 8 8 8 7 7 7 7 7 7 7 8 8 8 8 9 9 9 9 10 10
19 19 18 18 18 18 18 18 18 17 16 16 16 16 15 14 14 13 12 12 11 11 11 11 11 11 10 10 10 10 10 10 10 9 9 9 9 9 9 9 9 10 10 10 10 10 10 10 10 11 11 11 10 10 10 9 9 9 9 9 9 9 9 9 9 9 9 9 9 9 7 6 8 8 8 8 8 8 9 10 10 10 10 10 11
20 19 19 19 19 19 19 19 18 17 17 17 17 17 16 15 15 14 13 13 12 12 11 11 11 11 10 10 9 9 9 9 9 8 8 8 8 8 9 9 9 10 10 10 10 10 10 10 11 11 11 11 10 10 10 10 9 9 9 9 9 9 9 9 10 10 10 10 10 9 9 8 9 9 9 10 9 9 10 11 11 11 11 11 12
20 20 19 19 19 19 19 19 19 18 18 18 17 17 16 16 15 14 14 13 13 12 11 11 11 11 10 10 9 8 8 8 8 7 7 7 7 8 9 9 10 11 10 11 11 10 11 11 11 11 11 11 11 11 10 10 10 9 9 10 10 10 10 10 10 11 11 11 10 10 10 11 10 10 10 10 10 10 11 11 12 12 12 12 12
21 20 20 20 20 20 20 20 20 19 18 18 18 17 17 16 15 15 14 14 13 12 11 11 11 10 10 9 9 8 7 7 7 7 8 8 8 8 9 10 11 11 11 11 11 11 12 12 11 11 11 11 11 11 11 11 11 10 10 10 11 11 11 11 11 11 11 12 12 12 12 12 11 11 11 11 11 11 12 12 13 13 13 13 13
21 21 21 21 21 20 20 21 21 20 19 19 18 18 17 17 16 15 15 15 14 12 11 11 10 10 10 9 8 8 7 7 7 8 8 8 8 9 9 11 11 11 11 12 12 12 12 12 12 12 12 12 12 12 12 12 12 12 12 11 12 12 12 12 13 13 13 13 14 14 13 13 13 13 12 12 12 12 12 13 13 13 13 14 14
Wind_Direction
123 125 123 124 127 129 130 133 133 131 133 133 129 128 128 128 129 129 129 129 129 129 128 129 129 128 125 121 116 112 108 103 98 92 87 83 81 78 76 75 75 77 79 80 77 73 69 67 65 63 61 60 62 65 68 73 77 76 72 72 75 71 68 65 62 60 60 67 71 68 68 67 68 70 76 81 88 93 96 103 111 116 121 122 126
125 125 124 124 127 128 128 130 132 130 130 133 131 127 127 127 128 129 129 129 129 130 130 131 130 129 126 122 117 113 108 102 96 90 84 81 78 76 76 75 75 78 79 78 75 71 68 66 64 62 61 62 63 64 64 68 72 71 69 68 69 67 64 62 60 59 58 64 69 68 68 67 67 69 75 81 85 90 92 98 107 113 118 120 123
127 125 125 123 126 128 127 128 130 129 128 131 131 126 125 126 127 128 128 129 129 129 130 131 130 129 127 123 118 113 107 100 94 88 83 78 76 75 76 76 76 78 77 75 73 69 66 64 62 61 61 61 63 63 63 64 65 63 62 63 62 60 58 58 59 58 55 62 70 68 69 70 68 69 76 84 86 88 91 97 104 112 116 119 121
129 127 126 124 126 128 128 128 128 128 128 129 129 126 125 125 126 128 128 128 129 129 129 131 131 130 128 124 118 111 105 99 93 88 82 77 75 76 77 77 77 77 74 72 71 67 62 61 61 60 60 59 59 60 62 62 62 59 55 55 57 56 53 54 55 54 53 58 69 69 66 71 74 71 75 85 89 90 93 98 103 110 116 119 121
130 128 128 126 126 127 128 127 125 127 127 127 126 125 125 126 127 128 128 128 129 129 129 130 131 131 129 124 118 110 104 99 93 88 82 78 77 77 78 78 77 75 72 69 67 63 59 58 58 60 60 58 56 56 58 57 57 57 53 50 48 49 50 49 50 50 51 57 62 65 62 71 81 76 76 84 91 93 96 101 105 110 115 121 123
130 130 129 127 126 126 127 126 125 126 126 125 126 126 126 127 128 128 128 128 129 129 129 130 131 132 130 126 119 112 106 100 94 89 84 81 79 80 80 80 77 74 71 66 61 57 55 54 54 55 57 56 54 52 53 52 50 49 46 48 44 42 45 43 45 46 48 52 53 62 67 73 85 82 80 85 92 96 98 104 110 113 117 122 124
130 130 130 128 127 128 128 126 125 126 125 124 125 126 127 128 128 129 130 130 130 130 130 130 131 130 129 127 122 116 109 101 95 90 86 84 82 81 81 79 75 71 67 63 57 51 50 49 48 47 50 51 51 49 50 50 47 44 40 41 43 42 44 39 39 40 40 45 52 66 72 74 87 87 87 90 93 97 100 105 112 117 120 124 127
132 130 130 128 129 130 128 126 126 127 126 125 124 125 126 128 129 130 132 132 132 132 131 130 130 129 128 127 123 118 111 103 96 91 88 85 82 78 75 74 71 67 61 56 51 46 46 44 41 40 42 43 45 47 46 45 42 42 40 37 41 45 43 38 35 36 40 47 56 69 75 78 89 91 90 94 95 98 101 106 111 118 123 128 130
132 129 130 129 129 130 129 128 128 128 127 126 125 125 126 128 130 132 133 134 133 133 133 131 131 129 128 127 123 118 112 104 97 92 89 85 80 75 71 68 66 62 53 49 45 41 42 41 38 34 35 38 41 42 41 42 38 40 43 40 42 43 39 36 33 37 47 54 59 70 77 78 89 93 91 95 100 102 105 108 112 119 125 129 131
134 130 130 132 131 132 131 131 131 130 128 128 126 126 127 128 129 131 132 133 134 135 134 133 132 130 129 127 124 118 112 105 100 96 91 86 79 73 69 65 60 54 47 44 40 37 35 35 35 32 33 37 37 35 35 40 39 37 41 40 40 37 35 35 34 42 54 56 60 71 76 77 90 95 92 97 105 108 109 113 117 122 126 130 133
136 135 133 134 134 133 132 132 132 131 129 128 127 127 127 128 128 130 131 133 134 133 132 132 132 131 129 128 124 119 113 107 103 98 93 85 77 71 68 65 55 47 45 42 37 32 30 30 33 33 34 37 37 33 32 36 36 33 32 33 35 32 33 39 40 49 56 57 60 68 77 80 90 94 97 101 107 112 111 117 124 128 130 134 137
138 137 136 137 136 134 134 134 134 132 130 129 128 128 128 128 129 129 130 132 132 131 130 131 131 130 128 126 123 119 114 108 104 98 92 82 73 67 65 59 49 46 44 38 33 32 30 30 34 34 33 33 34 32 30 30 30 30 26 25 31 30 32 43 49 57 57 58 61 64 83 85 92 94 99 105 108 117 116 121 128 133 135 137 139
140 139 139 139 139 138 137 137 137 135 133 131 130 130 129 129 130 130 129 130 130 130 131 131 132 131 128 125 122 118 113 108 104 100 90 77 67 62 59 51 46 44 36 27 25 29 29 28 31 30 29 28 26 26 25 23 25 24 20 20 28 30 32 41 49 59 54 50 59 73 93 91 97 97 96 105 112 124 127 127 131 137 139 139 141
141 140 140 140 141 140 140 140 139 138 137 135 134 132 130 130 130 130 130 129 130 129 130 130 131 131 128 124 119 114 112 109 103 99 87 70 62 60 56 45 39 34 27 21 18 21 22 24 26 26 23 21 18 19 19 20 24 19 14 16 22 27 29 37 47 56 50 46 62 79 95 95 102 98 91 104 116 132 141 137 137 139 142 144 144
141 142 142 142 144 143 143 142 141 141 140 138 136 134 132 132 131 131 131 131 131 129 129 129 130 130 127 122 117 111 110 108 101 94 82 69 65 62 55 46 43 41 36 26 21 21 20 20 21 22 19 17 16 16 18 23 27 21 16 15 14 18 21 31 44 42 37 45 60 78 100 102 108 104 90 103 117 135 150 150 146 145 146 149 148
142 143 144 144 144 144 145 144 143 142 141 139 138 136 135 134 133 133 133 133 131 129 129 129 128 127 125 121 116 113 110 105 97 88 79 71 66 61 55 52 50 47 40 30 23 20 22 21 20 22 20 17 19 21 24 27 26 23 22 18 12 14 18 23 32 21 13 24 29 41 95 107 127 120 99 102 120 136 151 158 159 154 152 155 154
144 144 144 145 145 145 146 145 145 144 142 141 140 138 137 136 134 134 135 134 131 128 128 128 128 126 124 122 117 113 109 101 94 88 80 72 63 57 50 48 47 41 34 30 27 27 32 30 24 23 19 18 22 26 28 25 22 19 18 15 13 15 14 13 14 7 354 345 336 313 299 274 214 177 141 114 124 141 154 163 168 165 162 162 162
145 144 144 144 146 147 146 146 146 145 144 144 142 140 140 138 137 138 136 134 132 129 128 128 127 126 124 121 117 111 105 98 92 88 81 72 61 56 47 40 38 33 28 31 35 38 43 44 38 33 28 27 29 31 25 18 16 13 9 7 7 8 4 1 356 346 339 334 324 303 290 261 233 214 188 160 142 150 159 169 173 174 172 171 171
147 146 147 146 148 149 147 147 146 146 146 145 144 144 142 141 141 141 138 136 135 133 131 130 128 127 125 122 116 110 105 98 91 86 79 70 59 50 42 34 29 26 25 32 41 42 43 48 47 42 39 34 31 29 20 14 11 6 3 2 359 356 353 352 348 338 329 327 321 309 293 254 230 220 207 197 185 171 170 176 178 180 180 180 180
153 151 151 151 152 151 149 148 148 147 147 145 145 146 145 143 143 142 141 139 137 135 133 132 130 127 125 122 117 111 106 99 90 83 73 64 53 36 28 26 23 22 25 32 42 45 44 48 47 42 39 30 25 22 17 15 10 5 1 360 356 349 347 345 343 338 331 329 324 317 304 263 234 224 219 214 205 195 188 187 187 186 187 188 189
158 156 155 154 154 154 151 150 150 148 147 146 146 147 147 146 145 144 142 141 138 137 135 133 131 127 124 122 119 115 108 100 89 77 65 53 44 27 21 21 21 23 29 34 40 46 45 45 45 40 35 27 20 15 12 8 5 5 2 360 356 350 348 344 339 337 331 331 326 317 309 281 247 231 224 219 214 209 204 202 200 196 194 196 196
160 159 157 156 155 156 154 153 153 151 150 149 147 147 147 147 146 145 144 143 142 140 138 135 133 130 128 124 121 119 111 104 87 70 56 44 35 25 24 22 23 27 35 39 39 42 43 43 42 36 30 24 18 13 10 3 360 0 358 359 356 351 348 343 338 335 327 322 319 311 303 289 262 245 233 224 220 218 215 212 212 208 205 203 202
162 159 157 157 157 156 156 156 156 155 154 152 150 148 148 147 147 147 147 146 146 146 144 141 139 138 133 128 124 119 113 104 85 62 41 30 26 24 26 25 29 34 36 40 40 40 40 38 35 28 23 19 18 16 11 5 360 355 352 353 350 347 345 340 337 334 327 319 314 306 293 283 269 256 244 234 230 227 224 222 220 218 215 212 210
162 160 158 159 158 158 158 158 158 157 156 156 153 151 151 150 149 148 148 149 151 152 150 147 144 144 139 134 134 128 122 101 71 48 34 28 24 21 25 29 34 36 35 38 37 39 36 30 27 22 18 17 16 12 6 1 357 352 350 348 344 342 340 337 333 329 325 320 311 304 294 282 270 259 252 243 239 234 229 228 227 225 222 220 218
162 160 160 161 160 160 159 159 159 158 158 158 155 155 155 153 152 151 151 153 156 157 156 155 153 154 150 145 148 142 130 98 73 53 43 40 31 26 30 35 37 32 31 34 33 35 34 27 25 21 19 18 13 7 1 357 354 352 350 347 343 341 338 335 333 327 324 319 306 298 295 286 274 264 258 251 245 241 236 233 232 231 229 228 226
163 161 161 162 162 162 162 162 162 161 160 160 159 159 159 156 156 156 157 158 160 161 160 163 164 167 169 162 160 150 136 109 90 63 45 39 30 30 34 38 38 32 30 33 32 31 29 26 25 21 16 13 9 3 358 356 354 353 353 351 348 345 342 339 336 331 326 320 304 296 293 285 276 267 261 256 250 246 242 239 236 234 234 233 232
164 163 162 163 165 165 164 164 164 164 164 164 162 162 163 162 162 163 164 164 165 166 167 171 175 181 182 175 172 168 167 163 151 107 45 36 29 32 33 34 34 32 33 31 28 26 23 20 17 12 7 5 2 360 357 354 352 353 355 354 351 348 347 345 342 335 329 322 307 299 297 286 277 269 262 258 253 248 245 243 239 236 235 235 235
166 166 164 165 167 167 166 165 166 168 168 169 168 167 169 169 171 175 175 175 176 177 180 180 182 187 188 185 184 180 181 179 168 144 49 30 28 29 24 22 22 24 26 22 20 19 14 10 5 2 359 358 357 355 353 352 351 352 352 351 349 348 348 347 344 339 333 328 314 304 303 295 282 272 265 260 254 250 248 247 242 237 235 236 237
169 170 169 168 168 169 170 170 171 173 172 173 175 175 177 178 181 186 188 189 189 190 192 190 190 194 193 195 197 193 195 200 200 314 23 17 9 3 358 2 9 11 9 7 9 6 360 360 358 354 352 350 350 349 347 347 348 348 347 349 348 347 349 347 345 341 336 333 323 311 308 303 291 278 270 264 259 255 252 251 247 240 237 237 238
172 172 171 170 170 171 174 175 176 177 176 178 181 182 184 188 191 195 198 198 199 198 199 200 200 201 199 209 217 214 218 231 243 262 285 316 323 326 336 342 344 345 348 354 355 351 350 351 348 345 344 343 343 343 343 344 344 344 345 346 347 348 350 347 345 342 337 334 328 318 311 305 295 283 274 269 264 260 258 256 253 245 240 239 240
174 175 175 173 174 175 178 181 182 181 181 182 185 189 192 195 198 201 202 203 206 208 208 210 210 211 212 223 229 227 232 237 244 258 265 286 303 307 319 326 329 328 332 340 341 341 343 342 340 339 339 339 341 341 342 343 342 342 342 341 344 348 347 345 345 344 342 338 332 324 312 305 297 286 277 271 267 264 263 259 256 253 247 244 242
178 179 179 178 179 181 182 184 187 187 187 187 190 196 198 200 202 203 204 206 210 213 215 218 221 222 221 227 235 239 243 242 252 262 263 278 293 297 303 308 315 318 322 328 331 334 334 332 334 335 335 337 339 339 339 339 338 340 339 339 343 345 343 343 345 345 344 340 336 330 318 308 300 290 280 272 267 266 264 260 258 258 256 249 245
182 182 182 183 185 186 188 189 191 194 194 194 197 202 204 204 205 205 206 208 211 214 216 222 226 227 226 233 242 247 251 251 256 261 263 274 281 290 299 299 303 309 313 315 322 327 325 325 329 331 333 334 335 335 335 334 335 337 337 338 341 342 341 343 344 344 345 343 340 336 326 316 303 292 288 278 271 267 262 261 261 260 259 254 250
186 186 187 188 189 190 193 195 197 199 200 201 204 207 208 209 209 209 209 211 216 218 220 226 229 231 233 241 249 252 257 256 258 262 266 272 278 288 294 295 297 303 307 306 314 320 320 323 325 327 329 329 330 330 330 330 331 333 334 336 338 340 339 342 343 343 346 346 344 341 333 325 313 299 292 285 278 273 267 265 263 260 259 259 256
189 189 191 192 193 195 198 200 202 204 204 206 208 210 211 212 213 213 214 216 220 223 226 230 232 236 238 241 247 252 255 253 257 265 268 272 279 287 291 294 294 298 302 300 307 314 316 320 320 322 324 325 325 323 323 326 327 329 331 333 335 337 337 340 343 341 343 345 344 343 339 333 326 312 298 289 281 278 275 269 265 262 261 261 260
191 192 194 196 198 199 202 204 206 207 207 209 212 213 215 216 217 217 218 220 223 226 230 231 232 238 240 241 245 248 250 252 258 265 270 276 281 284 288 291 292 295 300 299 304 311 315 317 316 317 319 319 319 318 319 320 321 323 324 325 330 332 333 336 339 337 338 340 340 340 340 338 333 324 310 292 284 281 279 275 270 267 264 262 260
194 196 197 200 202 203 206 208 209 210 210 211 214 217 219 221 222 221 221 223 226 229 232 234 237 240 242 245 248 250 251 254 259 265 273 280 282 285 286 287 289 293 297 297 300 307 312 313 312 313 314 314 314 314 315 314 313 314 314 317 322 325 327 330 331 332 333 334 335 335 337 338 336 333 323 304 293 287 281 278 274 270 267 265 262
198 199 200 203 205 207 211 212 212 213 213 215 218 220 222 225 227 226 224 226 230 232 234 238 242 245 246 248 251 252 252 254 259 265 273 279 281 283 283 285 287 289 293 295 297 302 307 307 308 310 312 313 311 309 309 308 308 308 309 311 316 320 322 325 326 326 326 328 330 331 333 336 335 336 332 321 313 303 292 283 277 274 270 267 266
201 203 204 205 208 211 214 216 215 215 216 218 220 222 224 227 229 229 228 230 233 235 237 240 244 248 248 250 252 252 253 257 261 266 271 278 282 283 285 285 284 286 292 295 296 300 302 304 308 310 311 311 308 306 304 303 304 304 305 309 312 315 318 319 320 320 320 322 324 325 327 330 330 330 331 329 323 317 309 296 286 282 275 270 269
204 206 207 208 211 214 215 217 218 217 218 219 220 222 224 226 228 229 230 232 234 235 238 242 245 248 249 250 253 254 256 260 264 267 272 277 281 284 286 283 281 286 291 293 295 298 300 304 309 311 310 308 306 303 301 301 302 303 304 306 307 311 315 316 316 317 316 316 319 320 320 324 326 323 324 324 321 318 316 308 299 290 281 277 274
207 208 210 212 214 216 217 219 219 219 220 221 222 222 223 225 227 228 230 231 233 235 239 244 246 246 250 253 255 256 259 263 265 268 271 276 281 284 285 283 281 283 286 289 294 298 301 306 309 309 306 304 304 301 299 300 301 302 304 304 305 307 312 315 314 314 313 311 313 315 316 319 322 321 320 321 320 318 314 311 306 297 288 284 281
209 210 212 214 217 219 220 221 222 222 223 224 223 223 224 226 227 228 230 231 232 235 240 244 247 248 251 254 256 258 262 265 267 269 272 276 280 281 282 283 281 281 282 287 293 298 302 305 305 304 302 300 300 299 298 297 297 302 305 305 306 303 304 312 312 312 313 312 310 312 315 317 318 319 318 318 320 319 314 310 307 301 293 289 286
211 213 214 215 217 220 222 223 224 225 225 226 225 225 226 226 227 228 229 232 234 236 240 243 248 252 253 255 256 259 263 266 268 270 273 277 279 280 281 281 280 281 284 287 292 296 299 301 301 301 300 297 295 293 293 293 295 301 302 301 303 300 299 307 310 314 315 312 309 311 312 312 316 319 318 317 317 317 314 309 305 301 296 292 289
214 215 216 217 219 221 222 223 224 226 227 227 225 226 227 226 227 229 230 235 238 238 240 244 248 252 255 257 258 261 265 268 270 271 274 276 278 279 280 280 279 283 286 289 292 295 296 297 298 299 298 297 295 291 291 292 294 298 297 296 300 303 303 302 304 309 311 306 303 308 308 306 313 318 317 317 316 314 313 309 306 304 299 296 292
217 218 218 219 221 223 223 223 224 225 226 226 224 224 225 226 227 229 232 237 239 238 241 247 252 254 256 258 261 265 268 268 269 270 272 275 277 277 279 281 283 286 288 291 293 294 295 295 296 297 296 296 296 293 291 292 292 292 293 294 296 300 303 302 302 303 303 299 295 301 306 304 307 312 312 313 315 314 313 310 309 307 304 301 297
220 220 221 221 223 223 223 223 224 224 226 225 223 224 226 227 227 230 233 236 238 241 245 251 255 257 259 260 262 264 267 267 266 268 271 275 277 277 280 284 287 289 290 291 293 294 294 294 294 296 296 294 294 292 289 288 289 290 290 289 288 290 292 294 297 298 297 297 296 298 302 301 299 300 304 308 308 309 311 310 309 307 306 305 302
221 221 222 222 222 223 223 224 224 225 225 224 223 225 227 227 228 231 234 237 241 246 249 252 255 257 259 261 264 265 264 265 266 268 272 275 277 279 283 289 293 293 293 293 294 294 293 293 294 294 293 292 291 289 286 285 284 286 288 287 288 289 289 288 290 291 290 293 296 296 294 298 299 297 302 306 304 305 307 305 303 303 303 305 304
223 223 223 223 222 223 224 225 226 225 225 224 223 225 227 228 229 231 234 237 243 248 250 251 254 256 257 259 264 266 263 264 267 269 271 273 278 283 288 295 299 297 295 294 294 293 293 294 293 293 290 289 288 285 285 286 285 285 285 285 288 289 289 288 289 288 287 288 289 289 288 294 299 297 298 302 300 303 305 300 299 300 298 300 302
223 224 223 224 223 223 224 225 226 226 224 224 224 225 226 227 228 230 233 237 243 247 249 251 252 253 255 257 260 263 263 264 266 268 270 274 280 287 294 301 304 301 297 296 295 294 293 293 291 292 290 288 286 284 283 285 286 286 283 283 285 287 287 288 288 287 287 288 287 285 286 289 294 293 292 294 296 301 302 299 299 299 295 297 298
224 224 222 222 223 223 224 225 225 226 225 225 225 225 226 227 228 229 232 237 241 245 248 249 249 249 251 253 255 259 263 266 268 269 273 278 284 290 296 302 304 302 299 297 296 295 293 290 289 290 289 286 286 284 282 282 283 284 282 281 283 285 287 288 288 287 286 284 284 286 287 286 289 291 290 290 292 297 298 297 298 296 294 297 298
224 224 223 222 222 222 223 223 224 225 225 224 224 225 226 228 228 230 232 236 239 241 243 244 244 246 247 248 251 256 262 268 273 275 276 279 285 291 296 299 301 301 300 297 294 293 292 290 288 287 285 284 284 282 280 280 280 280 279 279 282 284 287 289 290 291 289 285 285 287 288 287 288 289 291 291 290 293 294 295 296 294 293 297 297